Regional Weather Roundup
Issued by NWS Sioux Falls, SD

Home | Current Version | Previous Version | Graphics & Text | Print | Product List | Glossary On
Versions: 1 2 3 4 5 6 7 8 9 10 11 12 13 14 15 16 17 18 19 20 21 22 23 24 25 26 27 28 29 30 31 32 33 34 35 36 37 38 39 40 41 42 43 44 45 46 47 48 49 50
000
ASUS43 KFSD 040110
RWRFSD

WEATHER ROUNDUP FOR SE SOUTH DAKOTA/SW MINNESOTA/NW IOWA
NATIONAL WEATHER SERVICE SIOUX FALLS SD
700 PM CST SAT DEC 03 2016

NOTE: "FAIR" INDICATES FEW OR NO CLOUDS BELOW 12,000 FEET WITH NO
SIGNIFICANT WEATHER AND OR OBSTRUCTIONS TO VISIBILITY.


SDZ038>040-050-052>070-040200-
SOUTHEAST SOUTH DAKOTA

CITY           SKY/WX    TMP DP  RH WIND       PRES   REMARKS
BROOKINGS      CLOUDY    33  32  96 S20       30.00F WCI  21
CHAMBERLAIN    CLOUDY    33  31  92 CALM      29.92S
HURON          CLEAR     33  32  96 S15       29.96S WCI  23
MADISON        CLOUDY    32  32 100 S21G29    30.01F WCI  20
MITCHELL       CLOUDY    36  34  92 S20G25    29.99S
SIOUX FALLS    DRIZZLE   34  33  96 S16G26    30.05F FOG     WCI  24
WINNER         FAIR      32  22  66 W7        29.93R WCI  26
YANKTON        CLOUDY    36  30  80 S12       30.05F
$$

MNZ071-072-080-081-089-090-097-098-040200-
SOUTHWEST MINNESOTA

CITY           SKY/WX    TMP DP  RH WIND       PRES   REMARKS
FAIRMONT       LGT RAIN  33  32  96 S10       30.14F WCI  25
JACKSON        LGT SNOW  32  32 100 S10       30.12F WCI  24
LUVERNE        CLOUDY    32  32 100 S13G18    30.08F FOG     WCI  22
MARSHALL       MOCLDY    34  30  86 S16       30.07F WCI  23
MONTEVIDEO     LGT SNOW  34  34 100 S9        30.09F WCI  26
PIPESTONE      LGT SNOW  34  32  93 S15       30.03F WCI  24
REDWOOD FALLS  LGT SNOW  33  30  88 SE13      30.11F FOG     WCI  24
TRACY          LGT SNOW  34  32  92 S10G17    30.08F WCI  26
WINDOM         CLOUDY    34  34 100 CALM      30.11F FOG
WORTHINGTON    LGT SNOW  32  31  96 S14       30.09F FOG     WCI  22
$$

IAZ001>003-012>014-020>022-031-032-NEZ013-014-SDZ071-040200-
NORTHWEST IOWA

CITY           SKY/WX    TMP DP  RH WIND       PRES   REMARKS
CHEROKEE       LGT SNOW  33  33 100 S6        30.13F WCI  27
DENISON        LGT SNOW  32  32 100 SE7       30.11F WCI  26
ESTHERVILLE    LGT SNOW  32  32 100 S12       30.13F FOG     WCI  23
LE MARS        CLOUDY    34  32  93 S9        30.12F FOG     WCI  26
ORANGE CITY    LGT SNOW  34  34 100 CALM      30.10F
SHELDON        MIX PCPN  32  32 100 S14       30.09F WCI  22
SIOUX CITY     CLOUDY    34  33  96 SE8       30.12F FOG     WCI  27
SPENCER        LGT SNOW  33  32  96 S12       30.12F FOG     WCI  24
STORM LAKE     CLOUDY    32  32 100 SE12      30.12F FOG     WCI  23
$$

ABBREVIATIONS USED IN REMARKS
   TC - TEMPERATURE IN CELSIUS
  WCI - WIND CHILL INDEX
   HX - HEAT INDEX
  VSB - VISIBILITY





USA.gov is the U.S. government's official web portal to all federal, state and local government web resources and services.